Location: Rounton
(54.4000°N, 1.3500°W)
Time: 16:53:21
(UTC+00:00)

Tiros 1 - Pass Details

Date: 05 December 2021
Orbit: 629 x 664 km, 48.4° (Epoch: 19 January)

Event Time Altitude Azimuth Distance (km) Brightness Sun altitude
Rises 17:31:32 0° 196° (SSW) 2,912 11.0 -14.6°
Reaches altitude 10° 17:35:06 10° 167° (SSE) 2,014 9.7 -15.1°
Maximum altitude 17:37:04 13° 142° (SE) 1,854 9.3 -15.4°
Enters shadow 17:38:16 12° 126° (SE) 1,923 9.2 -15.6°
